Theta_e
337 346 351 355 353 354 353 351 351 353 352 350 350 351 350 350 348 346 344 343 342 340 338 335 335 339 342 341 344 345 344 343 344 345 346 347 348 348 347 346 348 348 349
340 346 349 353 354 354 354 352 352 353 352 351 352 350 349 349 347 345 342 340 340 339 337 334 332 333 337 340 343 342 341 342 341 341 342 343 343 345 345 344 345 347 348
339 346 350 351 353 354 353 352 352 352 352 351 352 350 349 347 345 344 342 341 339 338 336 333 330 329 333 336 338 339 341 340 340 340 341 339 340 342 343 342 341 342 345
339 345 349 347 352 353 353 352 351 352 352 352 350 349 348 347 345 343 341 339 337 337 335 332 329 328 331 334 336 340 341 340 339 340 339 337 336 340 341 339 339 339 340
339 346 348 347 352 353 353 352 352 351 352 351 349 348 347 347 344 342 340 338 336 336 334 331 328 327 329 331 336 339 339 339 338 339 338 338 337 338 338 338 336 337 338
340 346 346 346 351 353 350 350 351 351 350 349 349 347 347 344 341 340 338 336 334 333 333 330 326 325 327 330 335 337 337 335 338 338 337 336 337 338 337 335 334 334 336
340 345 348 346 346 350 350 349 349 349 350 349 348 346 344 341 340 338 336 334 333 332 331 328 325 323 324 327 331 333 331 329 336 336 335 336 335 335 335 333 332 333 333
340 343 346 341 343 346 348 348 347 347 347 347 347 346 343 341 339 336 335 333 332 332 330 328 325 322 321 322 324 326 326 325 329 330 331 332 332 332 332 331 331 332 329
340 342 344 347 346 336 340 342 344 345 345 345 345 344 341 340 338 337 335 333 331 331 330 327 324 321 318 318 317 316 317 319 323 325 323 326 329 329 329 329 329 330 328
337 340 342 345 344 348 348 335 336 339 341 340 340 337 334 333 333 332 330 332 331 330 329 327 324 321 314 312 312 309 308 315 316 318 320 322 326 326 326 327 327 328 328
321 329 339 341 341 343 347 341 336 334 335 335 334 330 329 335 335 332 328 331 331 329 328 327 324 318 308 305 307 306 308 307 308 311 313 315 323 325 324 324 326 327 327
310 312 314 335 337 340 341 345 344 343 344 344 343 342 340 337 335 330 324 326 327 326 329 326 321 316 316 312 308 308 305 305 306 307 308 311 316 322 325 324 325 325 324
308 310 311 314 336 336 339 342 345 342 345 344 342 341 341 334 330 329 328 327 325 320 322 322 322 322 319 316 312 308 306 306 306 306 306 307 312 315 320 326 323 324 324
307 310 312 314 322 334 338 339 338 337 335 336 339 338 335 331 331 328 327 325 324 322 321 320 319 320 319 316 313 312 309 307 305 305 307 303 308 313 315 318 326 325 325
307 310 313 316 322 332 336 333 332 330 329 327 330 332 333 331 330 327 324 323 321 320 319 317 316 320 319 317 315 313 312 309 307 306 306 304 304 309 313 315 318 327 327
307 308 314 315 328 331 328 325 322 320 318 316 314 319 323 325 324 322 319 318 317 317 315 315 313 311 311 313 316 314 312 311 309 307 306 306 303 305 308 313 315 319 326
302 306 313 322 322 317 314 311 310 309 308 306 307 309 314 318 318 316 315 314 314 316 314 314 312 312 311 309 311 314 313 312 311 310 308 307 307 305 304 308 313 316 319
300 304 307 308 306 305 304 304 304 306 305 302 302 304 306 310 312 312 310 310 313 312 313 312 310 310 309 309 310 312 313 313 312 311 310 308 307 306 307 305 308 311 315
298 302 303 303 302 301 300 299 298 297 297 296 297 298 299 301 304 303 304 306 307 307 306 307 309 307 308 307 307 309 311 311 312 309 308 308 307 305 305 306 303 304 307
297 299 300 301 300 299 297 296 294 293 294 294 294 294 295 298 300 302 302 303 304 304 303 305 308 309 307 305 305 307 309 309 308 307 306 305 303 303 304 303 304 305 305
296 296 297 298 299 299 297 294 294 292 293 293 293 294 294 294 295 296 296 296 297 296 296 298 301 302 303 301 304 304 306 306 303 306 306 303 304 302 303 303 303 303 304
295 295 295 296 297 297 297 296 294 293 292 292 292 292 292 292 292 292 293 292 293 293 292 292 293 295 296 298 298 301 300 303 303 303 303 302 301 303 304 303 303 302 303
294 294 295 295 295 294 293 293 292 293 293 291 291 290 291 291 291 291 291 291 291 291 290 290 291 291 290 292 297 295 295 295 295 303 303 301 303 302 302 303 303 302 303
290 292 292 292 292 292 293 292 292 290 288 289 290 290 290 291 290 290 290 290 290 290 289 289 289 289 290 288 291 291 292 294 290 290 297 297 300 296 299 299 300 302 302
290 290 291 290 291 291 292 291 290 289 289 290 290 289 289 290 290 289 289 288 287 287 288 287 287 287 288 288 287 288 288 289 291 290 286 289 292 293 294 297 296 298 299
289 290 290 290 290 291 291 291 290 289 289 289 289 288 289 289 289 288 287 287 287 286 286 286 287 286 286 287 287 286 286 285 285 285 285 286 287 289 292 293 293 295 298
Wind_Speed
7 13 9 12 12 14 15 13 12 12 12 13 13 12 13 17 18 16 15 14 14 13 13 13 13 12 11 10 11 14 14 13 13 13 13 14 16 16 16 17 13 15 15
10 14 9 10 12 10 13 12 12 11 11 12 11 13 15 16 17 16 14 14 13 13 13 13 12 12 11 10 10 11 11 11 11 10 6 11 13 14 15 16 16 15 16
9 13 14 10 14 11 13 12 10 10 11 11 13 13 15 15 15 14 14 13 12 13 13 13 13 11 10 9 8 9 9 8 9 7 5 8 10 12 13 14 14 14 14
10 13 14 9 13 11 12 12 10 10 10 10 12 12 13 13 14 13 13 14 12 12 13 13 13 12 11 10 9 9 9 8 7 4 6 8 9 12 12 12 13 14 12
9 12 11 8 12 11 11 12 10 9 9 9 9 11 12 13 13 13 12 13 12 12 12 13 13 12 11 11 9 10 10 10 5 2 7 8 7 11 12 13 12 13 13
8 11 10 6 10 12 11 11 10 9 9 8 10 12 14 13 12 13 12 13 12 11 12 13 13 12 12 12 11 11 11 9 5 7 6 6 10 10 11 11 12 12 12
8 8 10 7 8 10 12 10 9 8 9 10 11 12 14 13 13 13 13 12 11 10 11 12 12 12 13 13 12 11 10 8 6 6 6 6 9 9 10 10 10 11 12
6 7 8 7 4 7 12 11 10 9 8 9 10 14 14 13 14 13 13 11 10 10 11 12 12 12 12 12 12 12 11 10 4 6 6 5 10 9 9 9 9 10 11
4 5 7 8 7 5 5 10 10 9 9 9 10 12 13 12 13 13 12 11 10 10 10 10 11 11 12 12 11 11 10 9 5 5 5 4 10 8 8 8 9 9 10
5 3 4 6 5 7 7 2 7 8 7 6 8 11 11 10 9 8 11 11 10 9 8 9 10 10 10 10 11 10 7 3 6 5 4 6 9 7 7 7 7 8 8
5 5 1 4 6 7 6 4 4 8 8 7 9 9 10 6 6 4 9 7 11 8 8 8 9 8 7 8 9 8 4 4 5 4 3 9 9 7 6 6 5 6 6
6 7 5 4 5 5 4 6 3 3 6 6 7 11 8 7 5 6 6 7 8 8 6 8 8 6 2 4 3 1 3 4 3 3 3 9 9 9 8 5 4 4 2
8 6 7 6 5 6 4 3 3 2 0 1 5 7 6 6 4 4 3 3 3 4 3 3 2 4 6 5 5 5 5 4 3 3 3 8 9 9 8 9 4 4 3
9 9 8 6 6 5 3 2 4 3 3 4 5 5 3 3 4 3 2 3 3 2 4 3 3 4 5 5 5 5 5 5 4 3 3 6 9 9 9 8 9 5 5
9 10 9 6 6 5 5 5 6 6 6 6 6 7 4 3 4 3 4 4 3 3 3 3 3 4 4 5 5 6 6 5 6 4 4 3 8 8 9 9 9 10 8
10 10 10 3 6 7 9 11 9 8 8 8 8 8 9 6 5 4 4 4 3 4 4 3 4 3 3 5 5 5 5 5 6 6 5 5 5 9 9 10 9 10 12
8 9 9 7 12 14 14 12 9 9 9 9 8 12 11 10 8 8 6 6 5 5 5 3 4 3 3 3 4 4 4 5 5 6 5 5 5 5 8 10 10 11 11
8 9 12 12 15 15 14 10 10 10 10 9 8 9 13 12 9 9 8 6 5 5 5 5 4 3 4 4 5 6 6 6 7 7 5 5 5 5 4 6 9 10 11
8 8 13 13 14 15 15 13 13 13 11 10 10 9 13 13 12 8 8 6 7 6 6 5 4 5 5 6 7 7 8 8 8 5 6 6 6 5 5 6 7 11 11
9 10 11 11 13 14 12 11 10 10 10 10 10 9 12 10 11 10 9 10 9 9 10 10 9 7 7 9 9 8 8 5 4 3 4 4 4 5 5 7 7 6 8
10 11 11 11 9 7 7 8 9 10 11 11 11 15 16 14 15 13 11 12 11 12 12 12 9 10 8 11 6 6 4 4 2 4 4 2 5 5 5 6 5 5 7
11 11 12 12 10 9 8 9 10 10 11 11 11 14 15 16 16 14 13 12 13 10 13 13 13 8 7 10 7 7 5 1 3 9 2 5 5 5 7 8 7 8 7
12 12 13 14 15 14 15 12 12 11 10 10 11 11 13 15 15 14 14 11 11 10 9 10 11 12 8 8 10 7 6 5 11 1 6 2 9 8 9 10 10 9 9
11 11 13 13 14 12 12 12 14 12 12 10 9 10 10 14 14 13 13 12 11 8 10 9 9 9 9 8 5 7 6 6 6 8 4 9 5 11 9 9 11 11 10
11 12 13 15 14 13 14 14 12 14 10 8 8 11 11 11 13 12 12 11 10 8 9 10 10 10 7 7 6 6 6 7 7 7 13 9 10 9 10 7 10 10 12
10 11 13 15 14 13 14 15 16 15 12 9 8 8 7 7 8 11 10 9 9 8 9 8 8 9 8 7 6 6 6 5 8 9 12 14 17 11 10 11 10 9 8
Wind_Direction
175 164 196 154 142 141 131 129 126 125 124 125 126 127 114 95 89 84 77 72 68 67 62 57 58 57 58 59 53 68 60 59 58 59 58 55 59 56 50 36 40 59 51
148 166 181 158 148 143 136 136 136 134 134 133 134 129 109 101 95 90 82 72 66 62 61 58 57 57 59 59 50 55 56 56 57 51 37 90 47 47 48 41 40 46 49
164 167 176 162 148 149 139 138 139 140 141 141 124 123 115 111 107 100 91 75 65 60 58 56 54 56 58 63 60 54 59 60 56 51 21 66 61 40 45 40 39 44 45
164 169 174 157 147 151 146 144 146 147 144 143 134 129 120 119 111 98 89 80 63 57 53 51 51 50 54 55 55 60 56 80 60 340 61 58 66 44 43 42 37 34 30
158 170 167 169 151 159 152 152 153 151 153 142 139 130 124 113 100 90 87 82 66 59 54 51 50 47 48 48 52 60 62 71 71 59 56 39 55 50 39 35 35 37 29
155 171 143 190 169 166 165 163 159 155 151 144 133 132 125 113 103 92 89 82 67 60 54 52 50 49 50 48 54 55 53 42 314 63 45 67 44 31 31 32 32 31 30
151 169 169 184 190 181 163 167 164 160 147 137 133 130 122 112 100 92 86 76 69 62 59 55 52 50 50 50 51 52 51 35 37 52 46 25 39 18 25 27 31 33 28
149 167 177 182 210 202 175 172 168 165 158 145 136 134 128 120 112 106 97 90 76 64 63 54 51 49 49 50 49 46 39 12 52 50 40 24 7 16 22 26 30 34 23
120 156 175 184 202 251 228 165 167 167 165 155 143 138 128 126 121 117 110 93 77 67 72 62 59 48 43 45 44 46 42 22 31 38 31 27 1 17 21 26 24 32 26
90 114 173 181 202 217 184 178 173 168 162 169 151 142 132 126 122 118 117 105 92 83 89 72 71 57 53 47 42 36 24 10 30 30 34 27 355 3 18 22 23 31 32
58 38 317 199 208 211 222 158 224 178 156 145 124 134 137 140 145 158 84 116 111 100 107 88 78 65 67 66 48 33 338 31 13 16 9 4 349 353 5 11 16 26 31
351 340 330 262 208 194 223 203 194 236 188 186 169 161 160 161 119 118 113 96 84 76 75 97 92 86 9 22 35 24 27 15 14 2 17 355 348 345 340 351 359 359 17
332 323 327 303 227 198 185 216 203 70 88 200 190 170 152 126 134 129 127 107 85 64 73 71 29 45 33 14 11 6 360 349 352 344 18 351 345 341 333 329 320 320 325
341 339 325 298 244 193 162 137 77 70 45 36 21 68 111 115 137 135 121 108 89 55 82 60 38 32 25 20 12 358 353 341 339 330 342 356 340 337 331 321 315 278 293
352 345 338 293 207 160 120 88 71 62 59 43 41 55 57 92 103 82 66 56 64 59 54 65 55 29 18 8 1 352 344 336 329 322 317 347 325 324 322 316 307 306 283
1 358 348 76 135 106 87 80 68 61 58 51 41 34 47 62 64 75 68 63 19 61 47 35 54 40 13 342 339 348 336 325 320 316 316 312 305 307 307 307 304 300 298
7 3 6 46 75 78 75 73 78 70 62 51 41 38 42 49 58 71 61 49 37 51 67 46 52 41 358 335 314 308 313 312 306 305 300 295 301 268 292 302 307 307 302
30 36 53 67 72 75 77 77 73 68 70 58 45 45 42 51 47 61 64 44 40 48 48 48 29 26 4 338 329 323 305 298 289 287 289 295 302 304 292 301 314 313 312
48 59 71 76 83 87 84 80 74 69 65 57 53 47 43 43 51 56 52 39 43 44 41 28 38 21 4 347 328 312 304 299 299 302 305 306 299 292 306 319 310 306 306
68 73 79 81 88 93 92 92 83 77 73 64 59 58 56 54 57 61 62 53 44 40 32 21 20 18 15 351 320 309 310 322 332 329 344 339 343 322 314 317 312 309 311
70 72 72 82 80 89 92 91 83 83 78 72 66 62 61 57 56 55 52 45 43 42 35 27 16 16 15 357 330 337 315 344 96 358 349 39 4 24 14 359 336 326 315
85 85 87 86 88 89 94 91 92 90 79 78 71 63 59 57 54 53 52 48 42 42 38 32 26 12 18 13 348 310 344 261 19 322 28 9 31 353 343 344 342 331 320
84 87 92 95 94 93 99 102 100 97 88 74 64 61 55 56 56 57 56 53 50 44 37 29 22 25 12 16 19 359 336 340 333 38 317 320 340 340 332 321 319 315 304
93 93 90 91 89 87 90 91 93 93 94 86 83 78 66 57 55 51 51 49 48 44 39 31 22 18 8 17 3 6 348 321 327 312 318 314 320 324 324 319 314 315 308
107 103 101 99 95 95 98 99 98 95 91 92 86 82 76 68 56 48 41 40 38 34 28 21 14 15 11 354 355 345 325 309 283 287 301 307 299 313 310 322 311 297 302
111 106 103 98 90 90 91 94 99 105 105 98 82 75 61 53 48 41 40 35 31 24 18 14 3 3 359 345 334 322 314 306 300 292 293 297 301 305 313 297 306 298 295